Address 0xb631dd081eca8d70400ab9b5840f40c761eefcbc 2

My Name Tag:
Not Available

Txn Hash Method
Block
From
To
Value [Txn Fee]
0xbc7cc4ea358d81e14ed2feff602e02588309e840884f485baf748d420b9640c4Mint Card157596192022-01-11 3:46:3914 days 9 hrs ago0xb631dd081eca8d70400ab9b5840f40c761eefcbcOUT 0x924398ae5eb6f5f97cb23126fd0c7623f90257480 BNB0.00269086
0xb653719bf8d67b6c5f29ada97c945d0f0301d3b5dd08e627e8733009ed860c9bMint Card157596132022-01-11 3:46:2114 days 9 hrs ago0xb631dd081eca8d70400ab9b5840f40c761eefcbcOUT 0x924398ae5eb6f5f97cb23126fd0c7623f90257480 BNB0.00269086
0x870416bfedf911c86c929e739a3bcc52b808faf44341e5163be4297132c3dd41Mint Card157593242022-01-11 3:31:5414 days 10 hrs ago0xb631dd081eca8d70400ab9b5840f40c761eefcbcOUT 0x924398ae5eb6f5f97cb23126fd0c7623f90257480 BNB0.00269074
0xb5113453da6cb3eadd4906870a5e25e215f025ee698c99e061831f2d874362e7Mint Card157591682022-01-11 3:24:0614 days 10 hrs ago0xb631dd081eca8d70400ab9b5840f40c761eefcbcOUT 0x924398ae5eb6f5f97cb23126fd0c7623f90257480 BNB0.00269062
0xefa9623f10a5762bcdcd79ac60bcdea5e8abc81f6b19d9a0d6ee018b1d800ef4Mint Card157591592022-01-11 3:23:3914 days 10 hrs ago0xb631dd081eca8d70400ab9b5840f40c761eefcbcOUT 0x924398ae5eb6f5f97cb23126fd0c7623f90257480 BNB0.00419821
0xa4acd2bfaf98c0bcdcb8a1dce2192c33a81be6c8bf71e91ab5d2cd67e68861b9Claim157591312022-01-11 3:22:1514 days 10 hrs ago0xb631dd081eca8d70400ab9b5840f40c761eefcbcOUT 0x7289fd88a6f7f2ba701495a65c93228e241ba5170 BNB0.00076859
0x53393b811b6862b63931c41b4426dc0c16e6634edc35874d20f4da89f7ed1fedClaim157591302022-01-11 3:22:1214 days 10 hrs ago0xb631dd081eca8d70400ab9b5840f40c761eefcbcOUT 0x7289fd88a6f7f2ba701495a65c93228e241ba5170 BNB0.00056601
0x03fb5d49d19864bb17ae66db14af3f4a7dd635e1518fb804b45cbdb944b79053Claim157591252022-01-11 3:21:5714 days 10 hrs ago0xb631dd081eca8d70400ab9b5840f40c761eefcbcOUT 0x7289fd88a6f7f2ba701495a65c93228e241ba5170 BNB0.00056613
0xe6ff3d70ee98e284fe0a6531d592e4fba2a845b2f35e91341a00e6d61d1e5d94Mint Card157589722022-01-11 3:14:1814 days 10 hrs ago0xb631dd081eca8d70400ab9b5840f40c761eefcbcOUT 0x924398ae5eb6f5f97cb23126fd0c7623f90257480 BNB0.00046731
0x670a6eed94b22d0a6c5fa6af1dfa2b383d4e6b344d633b1bd8edca91da6244c2Mint Card157588662022-01-11 3:09:0014 days 10 hrs ago0xb631dd081eca8d70400ab9b5840f40c761eefcbcOUT 0x924398ae5eb6f5f97cb23126fd0c7623f90257480 BNB0.00269074
0xf5ecb2e21701ba240adf48dced13ac0ae91d73fe0d55d90da6dc532701f4b6d6Mint Card157588562022-01-11 3:08:3014 days 10 hrs ago0xb631dd081eca8d70400ab9b5840f40c761eefcbcOUT 0x924398ae5eb6f5f97cb23126fd0c7623f90257480 BNB0.00269086
0xb3270a9ec05bcb77bf93bdc8790677535b1e1faaa124c52227820c383a5e818dMint Card153650022021-12-28 10:41:2628 days 2 hrs ago0xb631dd081eca8d70400ab9b5840f40c761eefcbcOUT 0x924398ae5eb6f5f97cb23126fd0c7623f90257480 BNB0.00269086
0xb5b30c5bbde9450d6eeec4f0a126dd5be6836cb86b09ba57cedd761dc0cbe5a4Mint Card153649842021-12-28 10:40:3228 days 2 hrs ago0xb631dd081eca8d70400ab9b5840f40c761eefcbcOUT 0x924398ae5eb6f5f97cb23126fd0c7623f90257480 BNB0.00269062
0x349599076b8ab83818b838003f61cb3c5a6b09cb9b2331421db2a7604541fdffMint Card153649132021-12-28 10:36:5928 days 2 hrs ago0xb631dd081eca8d70400ab9b5840f40c761eefcbcOUT 0x924398ae5eb6f5f97cb23126fd0c7623f90257480 BNB0.00269122
0x97f52c8c5a83caf45846f0162d5b910862467891ab8e99e5b8cfee20a8c04751Mint Card153648992021-12-28 10:36:1728 days 2 hrs ago0xb631dd081eca8d70400ab9b5840f40c761eefcbcOUT 0x924398ae5eb6f5f97cb23126fd0c7623f90257480 BNB0.00434785
0xcd5593fb96def56b8e12771931280b9762dd12c2ef9fd3a7551a71f0ee757953Claim153648812021-12-28 10:35:2328 days 3 hrs ago0xb631dd081eca8d70400ab9b5840f40c761eefcbcOUT 0x7289fd88a6f7f2ba701495a65c93228e241ba5170 BNB0.00056613
0x2e4dda2c8e617cc6cfc452f88e11da9b62abc5f8bb10c17cc935a6fcbf654c51Transfer149650792021-12-14 12:03:5242 days 1 hr ago0xb631dd081eca8d70400ab9b5840f40c761eefcbcOUT0x5d52d672397fc37f65f4ce3d1e4ae942886deb871 BNB0.00021
0xe9f556031d1811b80f7ff82f88551c07dfd7fb66cd6f218be71a3f6ef53587e5Transfer149597732021-12-14 7:29:5542 days 6 hrs ago0xaa25aa7a19f9c426e07dee59b12f944f4d9f1dd3 IN 0xb631dd081eca8d70400ab9b5840f40c761eefcbc1 BNB0.000378
0xb6d795f0168c5f9e14e45ce540a09e2bcd9fc0fad7385eda7c9ceeddd3e3863aUpgrade Card149391532021-12-13 13:51:2242 days 23 hrs ago0xb631dd081eca8d70400ab9b5840f40c761eefcbcOUT 0x924398ae5eb6f5f97cb23126fd0c7623f90257480 BNB0.00314304
0x486b21a6daaa516569481b73e1d6883248795ac8270493558e0b749051b2f9cfClaim149391442021-12-13 13:50:5542 days 23 hrs ago0xb631dd081eca8d70400ab9b5840f40c761eefcbcOUT 0x7289fd88a6f7f2ba701495a65c93228e241ba5170 BNB0.00086601
0x9eb7fb623d2090bb910b1e5f33f5440ef6dc3abbd443f4c9006315a23ab8ffcaApprove149391052021-12-13 13:48:5842 days 23 hrs ago0xb631dd081eca8d70400ab9b5840f40c761eefcbcOUT 0x7289fd88a6f7f2ba701495a65c93228e241ba5170 BNB0.00046862
0x983ddd49c0ca83a9ac8dacd5b106bcf45449f9084b4bb5714acd11bc1c7f9a16Approve149390992021-12-13 13:48:4042 days 23 hrs ago0xb631dd081eca8d70400ab9b5840f40c761eefcbcOUT 0xe4de6221ddc7ddffe8dad4075fcdc1e10b93e8170 BNB0.00045093
0x1cb4b773b26043603b3b1dbf4ed6184e5669d245347b7155d9a9d3f819c83208Set Approval For...149390942021-12-13 13:48:2542 days 23 hrs ago0xb631dd081eca8d70400ab9b5840f40c761eefcbcOUT 0x491037ccd37335dc8f35721dc856ad525dfbacc50 BNB0.00045403
0x3dac8d21bb703348d67de0e209494b2b6d1d4a3d61fb5ba19521a0afd3917d5eMuti Mint149390392021-12-13 13:45:4042 days 23 hrs ago0xb631dd081eca8d70400ab9b5840f40c761eefcbcOUT 0x491037ccd37335dc8f35721dc856ad525dfbacc50 BNB0.00878576
0x801b8f1a06199407aa6015aa34b0959c1421a3555788b04dd83b748be66c678fMuti Mint149390382021-12-13 13:45:3742 days 23 hrs ago0xb631dd081eca8d70400ab9b5840f40c761eefcbcOUT 0x491037ccd37335dc8f35721dc856ad525dfbacc50 BNB0.00878576
[ Download CSV Export 
Parent Txn Hash Block From To Value
Loading

Contract Name:
0 BNB

Compiler Version
0

Optimization Enabled:
0 BNB

Other Settings:
-NA-
Block Transaction Gas Used Reward
Age Block Fee Address BC Fee Address Voting Power Jailed Incoming
Block Uncle Number Difficulty Gas Used Reward
Loading